Volver al catálogo

COSMOS 2251 DEB

ActivoLEO
NORAD 35433·DEBRIS·🇷🇺 Russia

Lanzado Jun 16, 1993 desde Plesetsk Cosmodrome

Loading…

Próximos Pases (próximas 24 horas)

TLE

ActualizadoSource: Space-Track

Época: Sep 13, 2026, 05:52 UTC

1 35433U 93036AKB 26256.24455244  .00000396  00000-0  14723-3 0  9998
2 35433  74.0341 195.3181 0026965 189.6827 242.9705 14.35097574905183

Sigue COSMOS 2251 DEB en tiempo real con AllMySat

Download on the App Store